Meridian, MS

8:51 PM CST on December 08, 2019 (GMT -0600)
Key

Weather History for KMEI - November, 2019

Change the Weather History Date:

Tuesday, November 12, 2019

  Actual Average Record
Temperature  
Mean Temperature 36 °F 56 °F  
Max Temperature 45 °F 69 °F 83 °F (1955)
Min Temperature 27 °F 42 °F 18 °F (1894)
Degree Days  
Heating Degree Days 29 10  
Month to date heating degree days 153 102  
Since 1 July heating degree days 223 226  
Cooling Degree Days 0 1  
Month to date cooling degree days 0 12  
Year to date cooling degree days 2846 2025  
Moisture  
Dew Point 27 °F    
Average Humidity 74    
Maximum Humidity 89    
Minimum Humidity 40    
Precipitation  
Precipitation 0.12 in 0.15 in 2.91 in (2018)
Month to date precipitation 1.14 1.78  
Year to date precipitation 55.99 47.93  
Sea Level Pressure  
Sea Level Pressure 30.29 in    
Wind  
Wind Speed 15 mph ()    
Max Wind Speed 28 mph    
Max Gust Speed 35 mph    
Visibility 9.6 miles    
Events Rain    
T = Trace of Precipitation, MM = Missing Value Source: Averaged Metar Reports

Daily Weather History Graph

Daily Weather History Graph

Search for Another Location

Airport or City:

Astronomy

Nov. 12, 2019 Rise Set
Actual Time 6:21 AM CST 4:56 PM CST
Civil Twilight 5:55 AM CST 5:22 PM CST
Nautical Twilight 5:26 AM CST 5:51 PM CST
Astronomical Twilight 4:57 AM CST 6:20 PM CST
Moon 5:21 PM CST (11/12) 6:15 AM CST (11/12)
Length of Visible Light 11h 26m
Length of Day
10h 34m
Full, 100% of the Moon is Illuminated
Nov 12
Full
Nov 19
Last Quarter
Nov 26
New
Dec 4
First Quarter
Dec 11
Full

Hourly Weather History & Observations

Time (CST) Temp. Windchill Dew Point Humidity Pressure Visibility Wind Dir Wind Speed Gust Speed Precip Events Conditions
12:35 AM 43.0 °F 36.8 °F 39.9 °F 89% 30.12 in 2.5 mi North 11.5 mph 32.2 mph 0.07 in Rain Heavy Rain
12:43 AM 43.0 °F 36.0 °F 39.9 °F 89% 30.11 in 4.0 mi North 13.8 mph - 0.10 in Rain Heavy Rain
1:40 AM 41.0 °F 31.1 °F 37.0 °F 86% 30.13 in 10.0 mi North 23.0 mph 33.4 mph N/A Rain Light Rain
1:58 AM 41.0 °F 33.1 °F 37.0 °F 86% 30.15 in 10.0 mi North 15.0 mph 27.6 mph N/A Rain Light Rain
2:06 AM 41.0 °F 33.5 °F 37.0 °F 86% 30.16 in 10.0 mi North 13.8 mph 21.9 mph N/A Rain Light Rain
2:14 AM 41.0 °F 33.5 °F 37.0 °F 86% 30.16 in 10.0 mi North 13.8 mph - N/A Rain Light Rain
2:58 AM 39.0 °F 29.3 °F 35.1 °F 86% 30.17 in 10.0 mi NNW 19.6 mph - N/A Rain Light Rain
3:45 AM 37.0 °F 26.7 °F 33.1 °F 86% 30.21 in 10.0 mi North 19.6 mph 25.3 mph N/A Rain Light Rain
3:58 AM 37.0 °F 27.4 °F 33.1 °F 86% 30.22 in 10.0 mi North 17.3 mph 29.9 mph N/A   Overcast
4:05 AM 37.0 °F 26.2 °F 32.0 °F 82% 30.22 in 10.0 mi North 21.9 mph 28.8 mph N/A Rain Light Rain
4:24 AM 36.0 °F 26.3 °F 32.0 °F 86% 30.23 in 10.0 mi North 16.1 mph - N/A   Overcast
4:39 AM 36.0 °F 25.6 °F 32.0 °F 86% 30.23 in 10.0 mi North 18.4 mph - N/A Rain Light Rain
4:46 AM 36.0 °F 26.0 °F 32.0 °F 86% 30.24 in 10.0 mi North 17.3 mph 24.2 mph N/A Rain Light Rain
4:58 AM 36.0 °F 27.5 °F 32.0 °F 86% 30.24 in 10.0 mi NNW 12.7 mph 25.3 mph N/A   Overcast
5:05 AM 36.0 °F 24.2 °F 32.0 °F 86% 30.24 in 9.0 mi NNW 24.2 mph 31.1 mph N/A   Overcast
5:12 AM 35.1 °F 24.1 °F 30.9 °F 85% 30.25 in 9.0 mi North 19.6 mph 31.1 mph N/A   Overcast
5:19 AM 35.1 °F 23.0 °F 30.0 °F 82% 30.26 in 10.0 mi North 24.2 mph 33.4 mph N/A   Overcast
5:58 AM 34.0 °F 23.0 °F 30.0 °F 85% 30.28 in 10.0 mi North 18.4 mph 32.2 mph N/A   Overcast
6:05 AM 34.0 °F 22.7 °F 30.0 °F 85% 30.28 in 10.0 mi North 19.6 mph 26.5 mph N/A   Overcast
6:46 AM 34.0 °F 23.8 °F 28.9 °F 82% 30.30 in 10.0 mi North 16.1 mph - N/A   Overcast
6:58 AM 34.0 °F 23.0 °F 28.9 °F 82% 30.31 in 10.0 mi North 18.4 mph - N/A   Overcast
7:31 AM 33.1 °F 21.9 °F 27.0 °F 78% 30.33 in 10.0 mi North 18.4 mph 31.1 mph N/A   Overcast
7:58 AM 33.1 °F 21.2 °F 26.1 °F 75% 30.34 in 10.0 mi North 20.7 mph 31.1 mph N/A   Overcast
8:41 AM 33.1 °F 22.2 °F 27.0 °F 78% 30.36 in 10.0 mi North 17.3 mph - N/A   Overcast
8:58 AM 33.1 °F 23.0 °F 27.0 °F 78% 30.38 in 10.0 mi North 15.0 mph 26.5 mph N/A   Overcast
9:29 AM 33.1 °F 21.9 °F 25.0 °F 72% 30.38 in 10.0 mi North 18.4 mph 28.8 mph N/A   Overcast
9:58 AM 34.0 °F 23.8 °F 25.0 °F 70% 30.38 in 10.0 mi North 16.1 mph 26.5 mph N/A   Overcast
10:58 AM 35.1 °F 23.8 °F 24.1 °F 64% 30.38 in 10.0 mi North 20.7 mph 28.8 mph N/A   Mostly Cloudy
11:58 AM 37.0 °F 26.7 °F 24.1 °F 59% 30.36 in 10.0 mi North 19.6 mph 27.6 mph N/A   Scattered Clouds
12:58 PM 37.9 °F 29.2 °F 23.0 °F 55% 30.35 in 10.0 mi North 15.0 mph - N/A   Partly Cloudy
1:58 PM 39.0 °F 29.3 °F 19.0 °F 45% 30.33 in 10.0 mi North 19.6 mph 27.6 mph N/A   Clear
2:58 PM 41.0 °F 33.9 °F 19.9 °F 43% 30.33 in 10.0 mi North 12.7 mph - N/A   Clear
3:58 PM 39.0 °F 30.6 °F 18.0 °F 43% 30.33 in 10.0 mi North 15.0 mph - N/A   Clear
5:58 PM 32.0 °F 24.2 °F 18.0 °F 56% 30.37 in 10.0 mi North 9.2 mph - N/A   Clear
6:58 PM 30.9 °F 22.8 °F 18.0 °F 59% 30.39 in 10.0 mi North 9.2 mph - N/A   Clear
7:58 PM 30.0 °F 21.1 °F 17.1 °F 59% 30.40 in 10.0 mi North 10.4 mph - N/A   Clear
8:58 PM 30.0 °F 19.1 °F 16.0 °F 56% 30.39 in 10.0 mi North 15.0 mph 23.0 mph N/A   Clear
9:58 PM 28.9 °F 17.7 °F 15.1 °F 56% 30.40 in 10.0 mi NNE 15.0 mph 24.2 mph N/A   Clear
10:58 PM 28.0 °F - 15.1 °F 58% 30.39 in 10.0 mi North - - N/A   Clear
11:58 PM 27.0 °F - 15.1 °F 61% 30.38 in 10.0 mi North - - N/A   Clear